Regional Weather Roundup
Issued by NWS

Home | Current Version | Previous Version | Text Only | Print | Product List | Glossary Off
Versions: 1 2 3 4 5 6 7 8 9 10 11 12 13 14 15 16 17 18 19 20 21 22 23 24 25 26 27

000
ASUS45 KCYS 201110
RWRWY

WYOMING REGIONAL WEATHER ROUNDUP
NATIONAL WEATHER SERVICE CHEYENNE WY
400 AM MST MON FEB 20 2017

NOTE:  "FAIR" INDICATES FEW OR NO CLOUDS BELOW 12,000 FEET
WITH NO SIGNIFICANT WEATHER AND/OR OBSTRUCTIONS TO VISIBILITY.

WYZ001-201200-
YELLOWSTONE NATIONAL PARK

CITY           SKY/WX    TMP DP  RH WIND       PRES   REMARKS
LK YELLOWSTONE   N/A     23  20  88 VRB3      29.89S
W YELLOWSTONE  NOT AVBL

$$
WYZ002>013-054>058-071-098>099-201200-
NORTHERN WYOMING

CITY           SKY/WX    TMP DP  RH WIND       PRES   REMARKS
JACKSON        CLOUDY    28  27  93 SW8       29.93R WCI  20
CODY           FAIR      39  16  39 W8        29.85R WCI  33
GREYBULL       FAIR      32  24  72 SE7       29.85R WCI  26
WORLAND        FAIR      34  29  82 VRB5      29.85R WCI  30
SHERIDAN       FAIR      31  23  72 SW12      29.79R WCI  22
BUFFALO        FAIR      35  27  72 S6        29.81R WCI  30
GILLETTE       FAIR      36  34  92 W13       29.78R WCI  27
HULETT         PTSUNNY   41  36  81 W7        29.78R
NEWCASTLE      FAIR      37  36  93 N8        29.78S WCI  31

$$
WYZ014>020-022>026-101>103-201200-
CENTRAL WYOMING

CITY           SKY/WX    TMP DP  RH WIND       PRES   REMARKS
BIG PINEY      FAIR      11   9  92 NE5       29.98R WCI   3
PINEDALE       CLOUDY    10   9  92 W6        30.00R WCI   1
DUBOIS         CLOUDY    25  19  80 NW9       29.90S WCI  15
LANDER         FAIR      28  17  63 VRB3      29.89R
RIVERTON       FAIR      27  18  69 SW9       29.90R WCI  18
CASPER         FAIR      32  17  54 W13       29.86R WCI  22
DOUGLAS        FAIR      35  18  49 NW16      29.84R WCI  25

$$
WYZ021-027>030-104>119-201200-
SOUTHERN WYOMING

CITY           SKY/WX    TMP DP  RH WIND       PRES   REMARKS
EVANSTON       FAIR      27  21  78 S9        29.98R WCI  18
FORT BRIDGER   FAIR      28  21  73 SW3       30.00S
ROCK SPRINGS   FAIR      28  24  85 W12       29.97R WCI  18
DIXON            N/A     22  21  94 NE7       30.05R WCI  14
RAWLINS        FAIR      30  24  78 W21       29.95R WCI  17
SARATOGA       FAIR      25  25 100 NE5       29.97R WCI  19
LARAMIE        FAIR      30  17  58 W21       29.90R WCI  17
CHEYENNE       FAIR      38  14  37 NW16G25   29.85R WCI  29
TORRINGTON     FAIR      37  20  50 W9        29.79R WCI  30
PINE BLUFFS    FAIR      37  18  44 NW16G28   29.84R WCI  28

$$




USA.gov is the U.S. government's official web portal to all federal, state and local government web resources and services.